THURAYA-3 (32404 NORAD) Tracking and Keplerian Element Data

This shows tracking and keplerian element data for the satellite.

Feedback or suggestion? Click here.




ElementValue
Catalog32404
NameTHURAYA-3
Epoch Orbit5978
Epoch Day126.04941238
Epoch Year2024
RAAN32.0642
Inclination4.7969
Eccentricity0.0002333
Argument of Perigee19.9914
Mean Anonmoly287.6432
Mean Motion1.00271663
Decay Rate-3.03E-06
L11 32404U 08001A 24126.04941238 -.00000303 00000+0 00000+0 0 9993
L22 32404 4.7969 32.0642 0002333 19.9914 287.6432 1.00271663 59788



Live tracking and technical data element details for THURAYA-3 (NORAD 32404). THURAYA-3 can be tracked NOW for your location showing map with azimuth and elevation plus other details from your city location.







IsCatalogInMostPopularTable: catalog: 32404, numindb: 1208
Update: records affected: 1



GetName: 32404 THURAYA-3

Hit Count: updated at: Thu, 30 May 2024 17:00:53 GMT